GFSSGP_prec_cloud_003.txt.gz
Cloud_Cover
0 0 0 0 0 0 0 0 0 0 0 0 0 0 0 0 0 0 0 0 0 0 26 25 0 0 2 0 0 0 0 0 0 5 74 100 94 95 100 100 86 81 66 100 100 90 76 97 99
0 0 0 0 0 0 0 0 0 0 0 0 0 0 0 0 0 0 0 0 0 0 40 29 0 0 0 0 0 0 0 0 0 0 7 14 66 84 100 100 82 91 100 98 100 100 100 84 85
0 0 0 0 0 0 0 0 0 0 0 0 0 0 0 0 0 0 0 0 2 19 69 3 0 0 0 0 0 0 0 0 0 10 100 98 100 100 100 100 100 100 98 95 15 79 96 70 78
0 0 0 0 0 0 0 0 0 0 0 0 0 0 0 0 0 0 0 0 30 56 60 2 0 8 12 0 0 0 0 96 95 100 100 100 100 100 100 69 100 100 79 100 72 76 60 79 55
4 1 0 0 0 0 0 0 0 0 0 0 0 0 0 0 0 0 0 11 30 64 36 11 0 0 8 18 2 10 0 0 97 100 69 100 100 89 39 92 100 100 91 100 90 99 53 8 5
4 5 4 0 5 0 0 0 0 0 0 0 0 0 0 0 0 0 0 4 14 39 40 35 0 0 0 100 50 0 1 0 64 100 100 100 60 1 0 0 0 90 100 100 100 100 100 96 100
0 0 1 0 0 0 0 0 0 0 0 0 0 0 0 0 0 0 14 24 15 26 41 45 33 0 0 100 100 86 0 2 31 100 100 39 0 0 0 0 0 0 1 0 2 75 24 100 81
5 0 0 0 0 0 0 0 0 0 0 0 0 0 0 0 0 7 68 43 21 25 26 46 46 10 0 19 94 98 23 0 0 21 10 0 0 0 0 0 0 0 0 0 0 0 0 0 2
0 0 0 0 0 0 0 1 98 36 0 1 0 0 0 0 0 0 56 92 60 29 24 30 53 29 1 0 1 7 4 1 0 0 0 0 0 0 0 0 0 0 0 0 0 0 0 0 0
0 0 0 0 0 93 5 99 100 57 0 57 5 0 0 0 0 0 0 6 93 43 8 17 47 29 0 0 24 27 87 9 0 0 0 0 0 0 0 0 0 0 0 0 0 0 0 0 0
0 0 0 0 0 10 25 6 100 5 0 22 8 4 0 0 0 0 0 0 0 0 0 8 23 20 0 0 8 7 44 6 0 0 0 0 0 0 0 0 0 0 0 0 0 0 0 0 0
3 0 0 0 0 3 76 97 100 0 0 3 3 0 1 0 0 0 0 0 0 0 0 0 21 17 0 0 0 0 0 0 0 0 0 0 0 0 0 0 0 0 0 0 0 0 0 0 0
3 0 0 0 0 5 40 5 100 2 0 0 4 4 2 5 0 0 0 0 0 0 0 0 20 0 0 0 0 0 0 0 0 0 0 0 0 0 0 0 0 0 0 0 0 0 0 0 0
4 3 0 0 0 0 1 4 40 28 5 0 0 3 4 0 0 0 0 0 0 0 0 0 12 0 0 0 0 0 0 0 0 0 0 0 0 0 0 0 0 0 0 0 0 0 0 0 0
23 5 5 5 3 0 0 5 0 0 0 0 0 0 0 0 0 0 0 0 0 0 0 0 0 1 11 0 0 0 0 0 0 0 0 0 0 0 0 0 0 0 0 0 0 0 0 0 0
5 6 57 94 5 5 4 7 28 0 0 1 0 0 0 0 0 0 0 0 0 0 0 0 0 0 2 0 0 0 0 0 0 0 0 0 0 0 0 0 0 0 0 0 0 0 0 0 0
68 97 54 97 100 4 20 100 100 88 1 3 0 0 0 0 0 0 0 0 0 0 5 5 5 4 4 5 0 0 0 0 0 0 0 0 0 0 0 0 0 0 0 0 0 0 0 0 0
18 6 6 53 100 86 48 100 100 100 100 100 65 2 3 0 0 0 0 0 0 5 5 5 4 5 5 5 11 4 1 0 0 0 0 0 0 2 1 0 0 0 0 0 0 5 5 0 0
5 6 57 100 33 6 100 98 100 100 100 100 100 79 5 5 1 0 0 0 0 0 4 5 5 5 5 5 5 5 5 5 5 0 0 0 0 4 5 5 5 5 2 11 35 3 0 0 0
32 5 81 100 100 90 92 96 100 100 100 100 100 100 100 100 100 80 24 0 0 0 0 0 4 3 4 5 5 5 5 5 5 5 5 4 1 0 5 9 15 5 2 4 5 5 5 5 1
40 75 38 12 68 90 74 100 100 100 100 100 100 100 100 100 100 100 100 94 53 29 0 0 2 5 14 8 4 35 65 8 4 4 3 4 6 5 5 4 5 5 5 6 48 6 5 5 4
44 49 23 6 7 80 56 29 100 100 100 100 100 100 100 100 100 80 98 100 100 100 73 6 0 0 0 3 5 4 10 100 58 6 1 0 0 0 0 3 5 5 5 5 5 5 5 5 4
100 76 5 54 95 13 100 34 100 100 100 100 100 100 100 84 16 52 100 60 31 3 8 5 70 18 0 0 0 0 0 5 97 80 78 65 5 1 0 0 5 5 5 5 7 14 5 5 5
26 6 5 5 7 6 96 14 100 100 100 100 100 100 100 100 100 100 100 100 100 100 100 100 100 91 8 2 0 0 0 0 5 15 36 97 86 100 57 9 4 5 24 5 5 4 0 0 0
95 77 23 27 5 5 1 7 100 100 100 100 100 100 44 21 99 100 94 99 100 100 100 100 100 100 100 92 50 1 0 3 7 4 9 5 93 48 100 96 45 46 5 24 17 10 6 4 1
22 97 100 100 55 2 3 1 98 100 100 100 100 74 5 8 6 64 100 86 100 86 100 100 100 100 100 100 100 100 98 9 2 6 86 92 13 99 100 100 100 100 100 78 80 100 99 95 77
100 96 100 100 100 99 81 21 5 100 100 100 43 19 100 100 52 23 6 70 99 68 100 100 24 100 100 100 100 100 100 100 100 24 5 16 99 100 49 92 100 100 100 100 94 100 99 49 100
100 100 100 100 100 100 100 100 74 100 100 100 100 100 99 100 100 85 81 70 94 10 100 100 67 58 100 100 100 100 100 100 93 100 100 51 87 76 33 55 45 87 100 100 100 100 100 100 100
100 100 100 100 100 100 100 100 100 86 100 100 100 100 100 100 100 100 100 100 99 16 90 100 97 85 100 100 100 100 100 100 100 10 63 100 80 91 100 100 100 93 48 55 83 100 99 53 81
100 100 100 100 100 100 100 100 100 100 100 100 100 100 100 100 100 100 100 100 100 62 43 92 100 88 100 100 100 99 100 100 100 13 5 48 84 100 100 100 100 100 100 100 100 100 100 100 100

GFSSGP_prec_cloud_006.txt.gz
Cloud_Cover
0 0 0 0 0 0 0 0 0 0 0 0 0 0 0 0 0 0 0 0 0 0 0 0 0 0 0 0 0 0 0 0 2 2 2 0 100 86 79 100 91 54 97 36 60 49 15 20 87
0 0 0 0 0 0 0 0 0 0 0 0 0 0 0 0 0 0 0 0 0 0 0 0 0 0 0 0 0 0 0 0 0 2 13 5 30 91 87 100 97 26 36 53 11 6 6 24 7
0 0 0 0 0 0 0 0 0 0 0 0 0 0 0 0 0 0 0 0 0 0 0 0 0 0 0 0 0 0 0 0 0 3 4 54 64 96 100 100 85 100 79 79 9 48 85 63 9
0 0 0 0 0 0 0 0 0 0 0 0 0 0 0 0 0 0 0 0 0 0 0 0 0 0 0 0 0 0 0 0 92 0 74 100 100 100 100 100 100 100 100 100 34 8 68 32 92
0 0 0 0 0 0 0 0 0 0 0 0 0 0 0 0 0 0 0 0 0 0 0 0 0 0 0 0 0 0 0 0 0 0 2 98 100 100 47 17 89 42 4 70 16 100 7 2 44
0 0 0 0 0 0 0 0 0 0 0 0 0 0 0 0 0 0 0 0 0 0 0 0 15 0 0 0 0 0 0 0 0 0 0 27 100 99 21 3 15 0 0 4 33 100 69 6 60
1 0 0 0 0 0 0 0 0 0 0 0 0 0 0 0 0 0 0 0 0 0 3 2 5 3 42 0 0 0 0 0 0 0 8 82 100 24 0 0 0 0 0 3 73 70 88 52 92
0 0 0 0 0 0 0 3 38 4 0 5 3 0 0 0 0 0 0 0 0 0 0 5 19 20 1 0 18 100 16 0 0 3 100 100 39 0 0 0 0 0 0 0 0 0 0 1 95
0 0 0 0 0 7 5 48 100 5 0 2 70 0 0 0 0 0 0 0 0 0 0 1 8 17 18 0 1 99 100 54 0 0 21 44 0 0 0 0 0 0 0 0 0 0 0 0 0
0 0 0 0 0 4 5 14 81 5 0 4 26 0 0 0 0 0 0 0 0 0 0 0 0 0 0 8 9 10 88 100 84 73 26 19 0 0 0 0 0 0 0 0 0 0 0 0 0
5 0 0 0 0 0 4 71 100 2 0 0 11 0 0 0 0 0 0 0 0 0 0 0 0 0 0 1 0 0 39 100 93 38 25 0 0 0 0 0 0 0 0 0 0 0 0 0 0
6 1 0 0 0 0 51 98 100 1 0 1 1 5 0 0 0 0 0 0 0 0 0 0 0 0 0 0 0 0 0 52 7 24 0 0 0 0 0 0 0 0 0 0 0 0 0 0 0
0 0 0 0 0 0 12 47 100 15 1 0 0 9 24 1 0 0 0 0 0 0 0 0 0 0 0 0 0 0 0 3 0 0 0 0 0 0 0 0 0 0 0 0 0 0 0 0 0
5 4 5 4 4 0 0 1 20 14 3 5 2 2 0 5 0 0 0 0 0 0 0 0 0 0 0 0 0 0 0 0 0 0 0 0 0 0 0 0 0 0 0 0 0 0 0 0 0
5 6 10 7 5 2 4 84 27 0 0 5 0 0 0 0 0 0 0 0 0 0 0 4 0 0 0 0 0 0 0 0 0 0 0 0 0 0 0 0 0 0 0 0 0 0 0 0 0
5 36 90 95 5 5 5 92 100 58 0 78 77 1 0 0 0 0 0 0 0 0 0 0 0 0 0 0 0 0 0 0 0 0 0 0 0 0 0 0 0 0 0 0 0 0 0 0 0
75 65 19 93 62 5 60 94 93 95 82 100 100 100 3 0 0 0 0 0 0 0 0 0 0 0 0 3 4 0 0 0 0 0 0 0 0 0 0 0 0 0 0 0 0 0 0 0 0
9 77 96 100 81 5 41 24 100 100 100 100 100 100 88 43 2 0 0 0 0 0 0 0 0 0 0 0 0 0 0 0 0 0 5 0 0 0 3 3 0 1 0 0 0 0 0 0 0
5 5 8 98 100 71 100 18 100 100 100 100 98 100 100 100 93 5 5 4 0 0 4 4 5 1 2 0 0 5 5 3 0 0 0 0 1 4 3 0 4 59 18 2 0 0 4 0 2
50 17 20 61 12 69 100 100 100 70 23 6 61 91 99 91 62 58 58 14 7 8 17 56 12 31 100 94 28 5 3 4 5 53 4 4 0 1 1 6 5 5 5 29 18 4 0 0 1
64 96 100 68 51 64 99 100 100 100 100 64 70 5 5 27 5 21 100 100 100 100 100 98 100 77 52 89 100 100 100 92 37 4 5 5 4 5 4 6 30 42 25 60 52 6 5 5 5
100 100 77 43 5 98 100 99 100 100 100 100 79 41 54 9 100 99 100 100 100 100 100 100 83 19 97 80 30 28 97 100 100 100 100 84 5 2 2 2 4 40 55 86 55 47 73 38 33
100 100 100 100 100 100 100 92 100 100 100 100 94 88 37 100 100 100 100 100 83 98 99 56 54 95 55 9 19 34 4 8 95 100 96 9 91 19 7 4 5 5 5 23 99 73 6 5 77
84 81 89 80 80 64 100 100 100 100 100 100 100 100 24 20 82 100 100 100 100 100 84 51 7 77 83 36 88 96 40 43 9 30 82 97 21 4 5 1 4 3 5 5 5 31 22 47 6
75 9 12 8 21 88 76 19 99 100 34 34 56 19 5 6 39 11 65 99 100 100 100 100 100 100 100 98 20 7 33 49 100 83 19 22 5 2 4 1 5 4 4 6 25 5 100 99 58
7 78 100 87 4 26 7 63 99 100 92 5 5 5 5 5 4 3 5 19 28 61 100 100 100 100 100 100 100 100 99 86 2 18 72 70 99 31 5 33 5 29 38 5 8 100 100 100 100
18 27 96 100 82 53 4 44 98 100 70 33 70 40 14 5 9 5 8 15 39 46 5 5 97 100 100 100 100 100 100 100 100 100 90 19 27 98 100 97 46 12 89 80 99 44 36 100 100
100 92 28 93 100 98 44 15 4 52 88 100 100 100 100 88 35 54 91 32 81 100 99 5 5 97 100 100 59 100 100 100 100 100 100 100 100 100 100 84 100 99 94 43 22 24 78 100 100
78 75 100 100 100 100 100 100 100 100 100 100 100 100 100 100 100 100 100 74 92 98 100 77 5 100 100 100 86 96 100 81 18 98 100 94 100 100 100 100 100 93 100 76 100 62 5 60 100
100 100 100 100 100 100 100 100 100 100 100 100 100 100 100 100 100 100 100 100 100 100 100 100 99 100 100 100 100 100 100 100 92 100 100 100 100 100 100 100 100 100 100 100 100 100 100 100 100

GFSSGP_prec_cloud_009.txt.gz
Cloud_Cover
0 0 0 0 0 0 0 0 0 0 0 0 0 0 0 0 0 0 0 0 0 0 0 0 0 2 0 0 0 0 7 5 2 5 7 6 11 16 89 91 100 100 100 54 46 5 18 6 91
0 0 0 0 0 0 0 0 0 0 0 0 0 0 0 0 0 0 0 0 0 0 0 0 0 1 0 0 0 0 1 1 0 3 8 4 5 5 5 100 93 100 98 95 6 19 5 23 5
0 0 0 0 0 0 0 0 0 0 0 0 0 0 0 0 0 0 0 0 0 0 0 0 0 0 0 0 0 0 0 0 0 3 13 8 2 4 37 98 46 99 100 99 56 14 15 7 66
0 0 0 0 0 0 0 0 0 0 0 0 0 0 0 0 0 0 0 0 0 0 0 5 0 0 0 0 0 0 0 0 0 6 0 0 94 97 100 94 100 85 100 100 100 79 41 77 68
0 0 0 0 0 0 0 0 0 0 0 0 0 0 0 0 0 0 0 0 0 0 0 0 0 0 0 0 0 0 0 0 0 0 0 2 95 100 100 66 100 100 65 64 84 97 100 100 69
0 0 0 0 0 0 0 0 0 0 0 0 0 0 0 0 0 0 0 0 0 0 0 0 20 0 0 0 0 0 0 0 0 0 0 0 30 100 100 22 99 48 3 56 100 84 100 100 100
0 0 0 0 0 0 0 0 1 0 0 5 0 0 0 0 0 0 0 0 0 0 0 0 0 13 45 0 0 0 0 0 0 0 0 0 0 100 86 7 24 8 0 0 22 100 6 100 100
0 0 0 0 0 0 5 24 97 2 0 0 99 4 0 0 0 0 0 0 0 0 0 0 0 0 2 0 8 1 0 0 0 0 0 0 0 100 0 0 0 0 0 0 0 0 0 0 0
0 0 0 0 0 0 1 55 100 2 0 12 5 0 0 0 0 0 0 0 0 0 0 0 0 0 0 0 0 45 95 24 1 0 0 0 0 13 0 0 0 0 0 0 0 0 0 0 0
4 0 0 0 0 0 1 12 100 77 0 5 17 0 0 0 0 0 0 0 0 0 0 0 0 0 0 0 0 0 4 100 100 94 85 43 1 0 0 0 0 0 0 0 0 0 0 0 0
5 0 0 0 0 0 0 4 62 96 46 99 6 5 5 0 0 0 0 0 0 0 0 0 0 0 0 0 0 0 0 77 100 100 100 93 17 0 0 0 0 0 0 0 0 0 0 0 0
6 5 2 2 0 0 1 1 5 100 4 29 5 5 5 5 0 0 0 0 0 0 0 0 0 0 0 0 0 0 0 3 100 99 55 27 27 0 0 0 0 0 0 0 0 0 0 0 0
5 5 4 0 0 0 0 1 5 99 6 7 5 5 17 0 0 0 0 0 0 0 2 5 2 0 0 0 0 0 0 0 30 25 3 22 7 0 0 0 0 0 0 0 0 0 0 0 0
5 5 0 0 4 0 2 5 1 0 0 5 2 5 3 0 0 0 0 0 0 0 0 0 0 0 0 0 0 0 0 0 0 1 1 1 0 0 0 0 0 0 0 0 0 0 0 0 0
0 1 5 3 0 4 5 92 0 2 0 42 3 0 0 0 0 0 0 0 0 0 0 0 0 0 0 0 0 0 0 0 0 0 0 0 0 0 0 0 0 0 0 0 0 0 0 0 0
4 5 63 37 4 0 2 90 23 20 0 3 3 0 0 0 0 0 0 0 0 0 0 0 0 0 0 0 0 0 0 0 0 0 0 0 0 0 0 0 0 0 0 0 0 0 0 0 0
5 5 25 93 79 0 2 5 72 12 5 15 4 9 88 94 3 0 0 0 0 3 5 2 0 0 0 0 0 1 0 0 0 0 0 0 0 0 0 0 0 0 0 0 0 0 0 0 0
91 96 91 99 99 23 65 17 93 45 5 5 4 5 1 5 5 5 38 4 0 5 38 33 6 5 4 4 1 0 4 5 2 1 0 0 0 0 0 0 0 2 0 0 0 0 0 0 0
32 25 100 100 100 100 100 82 91 43 100 100 46 5 1 4 5 5 5 5 18 5 41 31 83 65 10 14 5 5 8 5 5 0 0 0 0 0 0 4 4 5 5 5 0 0 0 0 0
100 72 99 100 100 100 37 66 48 80 5 86 95 81 69 27 6 1 4 5 7 5 6 100 100 100 99 68 25 100 100 100 98 52 12 12 5 6 16 1 2 5 5 37 22 33 12 1 0
84 100 100 100 100 100 100 100 98 100 22 5 2 12 96 74 100 91 44 37 4 3 12 100 100 100 100 100 100 100 100 100 100 100 96 92 49 24 5 18 23 78 38 15 31 95 78 5 37
100 100 85 99 100 100 100 100 100 100 97 29 100 74 5 82 100 100 100 57 84 95 72 5 92 100 100 100 100 100 100 75 89 100 100 100 61 6 5 8 5 5 10 7 13 17 98 64 79
100 97 55 19 5 60 100 60 100 100 100 100 100 100 98 81 98 99 99 89 5 4 87 83 14 12 95 100 99 100 21 12 80 13 57 100 98 91 22 17 7 5 5 1 5 5 5 2 46
100 100 100 100 100 63 99 84 100 98 97 100 100 100 100 100 7 5 22 53 100 100 97 31 12 88 85 63 6 98 100 73 44 5 20 5 7 20 15 95 62 12 8 12 5 5 1 2 8
81 98 48 6 21 100 96 10 99 100 100 9 91 100 100 57 7 4 2 5 37 56 90 53 64 100 87 83 23 79 19 25 5 3 13 5 9 26 46 8 5 29 96 30 9 5 5 5 5
98 100 100 96 18 6 47 98 100 100 100 99 12 1 72 100 39 5 0 4 0 4 5 22 69 23 59 100 100 100 100 100 93 73 70 7 0 5 16 100 71 24 14 57 44 5 7 5 1
100 100 100 100 17 51 96 86 100 100 96 91 15 100 3 71 36 0 0 0 0 1 5 5 2 5 6 19 66 100 100 100 100 100 100 100 100 87 10 100 100 24 21 100 91 100 72 58 7
100 100 100 100 100 100 16 8 98 100 11 66 5 13 77 6 18 2 5 1 0 4 5 5 49 22 14 93 100 100 100 100 100 100 100 100 100 100 100 100 100 100 96 100 100 100 100 100 97
100 100 100 100 100 100 90 6 8 9 81 9 44 13 3 25 7 15 79 3 4 5 5 76 38 100 95 100 100 95 100 100 100 100 100 100 100 100 100 100 100 100 99 100 100 100 100 100 100
100 100 100 100 100 100 100 100 99 98 96 96 100 97 81 92 75 99 78 43 100 99 90 100 100 100 95 100 100 100 100 100 100 100 100 100 100 100 100 100 100 100 100 86 100 100 100 100 100

GFSSGP_prec_cloud_015.txt.gz
Cloud_Cover
0 0 0 0 0 0 0 0 0 0 0 0 0 0 0 0 0 0 0 0 0 0 0 0 0 0 0 0 0 0 0 0 0 2 5 6 27 15 56 48 85 99 100 100 100 100 100 100 92
0 0 0 0 0 0 0 0 0 0 0 0 0 0 0 0 0 0 0 0 0 0 0 0 0 0 0 0 0 0 0 0 6 0 0 2 5 6 10 13 40 67 88 100 100 79 100 100 100
0 0 0 0 0 0 0 0 0 0 0 0 0 0 0 0 0 0 0 0 0 0 0 0 0 0 0 0 0 0 0 0 0 5 0 0 1 5 5 13 25 9 100 75 98 100 81 100 98
0 0 0 0 0 0 0 0 0 0 0 0 0 0 0 0 0 0 0 0 0 0 0 0 0 0 2 0 0 0 0 0 0 0 0 0 6 10 5 5 7 5 88 97 100 100 100 100 84
0 0 0 0 0 0 0 0 0 0 0 0 0 0 0 0 0 0 0 0 0 0 0 0 0 0 0 0 0 0 0 0 0 0 0 0 1 7 100 83 100 100 100 69 78 98 100 100 88
0 0 0 0 0 0 0 0 0 0 0 0 5 26 0 0 0 0 0 0 0 0 0 0 8 0 0 0 0 0 0 0 0 0 0 0 0 0 1 68 30 86 100 69 50 95 100 100 100
0 0 0 0 0 0 0 0 0 1 0 0 2 0 0 0 0 0 0 0 0 0 0 8 10 4 13 0 0 0 0 0 0 0 0 0 0 0 0 0 13 100 99 0 3 5 5 93 100
1 0 0 0 0 0 0 0 0 0 0 3 8 0 0 0 0 0 0 0 0 0 0 0 11 24 25 3 8 2 20 2 0 0 0 0 0 0 0 0 5 45 56 0 0 0 0 1 46
0 0 0 0 0 0 0 0 0 0 0 2 55 5 0 0 0 0 0 0 0 0 0 0 1 10 16 23 31 83 54 57 32 0 0 0 3 0 0 0 0 72 1 0 0 0 0 0 0
0 0 0 0 0 0 0 0 1 1 0 0 0 2 0 0 0 0 0 0 0 0 0 0 0 0 10 4 1 41 100 32 17 1 7 87 40 0 0 0 0 0 0 0 0 0 0 0 0
0 0 0 0 0 0 0 0 0 0 0 0 0 0 0 0 0 0 0 0 0 0 0 0 0 0 0 0 5 30 88 88 48 12 17 100 100 96 39 0 0 0 0 0 0 0 0 0 0
0 0 0 0 0 0 0 0 0 0 5 0 0 0 0 0 0 0 0 0 0 0 0 0 1 0 0 0 0 15 66 66 27 1 100 100 100 100 100 40 0 0 0 0 0 0 0 0 0
0 0 0 0 0 0 0 0 0 0 1 5 0 0 0 0 0 0 0 0 0 0 0 0 0 5 2 0 0 4 11 8 0 0 39 100 100 100 100 37 5 1 0 0 0 0 0 0 0
76 65 26 2 0 0 0 0 5 0 5 5 4 0 0 0 1 0 0 0 0 0 0 0 0 0 3 5 0 0 0 7 2 0 0 2 99 100 100 94 1 1 0 0 0 0 0 0 0
90 80 76 38 5 5 0 3 2 0 5 6 0 1 1 3 0 2 0 0 0 3 5 0 0 0 0 0 0 0 0 6 38 19 0 0 5 98 100 100 18 0 0 0 0 0 0 0 0
100 95 100 100 32 46 5 87 100 1 0 5 4 2 5 5 0 0 0 0 0 4 4 9 16 0 0 0 0 0 0 0 0 22 85 99 90 53 100 100 84 0 0 0 0 0 0 0 0
97 100 84 93 100 100 50 78 96 99 21 1 0 0 5 4 0 2 4 0 0 4 2 1 3 13 24 18 0 0 0 0 0 54 100 100 100 100 100 100 100 92 0 0 0 0 0 0 0
51 98 99 86 93 94 100 100 75 42 100 98 50 2 5 0 0 2 17 8 4 0 1 0 1 5 4 4 4 0 0 22 100 100 100 100 100 100 100 100 100 54 0 0 0 0 0 0 0
5 68 38 100 100 25 100 100 100 100 100 100 100 100 100 68 6 4 0 3 5 5 0 5 5 5 5 3 48 82 5 35 100 100 100 100 100 100 100 100 100 39 1 0 0 2 5 2 4
6 5 5 27 5 6 74 100 100 100 100 100 100 100 100 100 100 99 79 9 5 5 4 5 5 5 0 0 5 4 75 61 100 100 100 100 100 100 100 100 100 100 95 80 50 22 7 7 5
22 5 0 3 4 7 59 93 100 100 100 100 100 100 100 100 100 100 100 100 98 39 11 8 24 5 5 30 9 19 1 5 54 80 100 100 100 100 100 100 100 100 100 100 58 8 5 15 52
18 5 5 4 3 6 11 2 100 64 100 100 100 100 100 100 100 100 100 100 100 100 100 99 81 96 71 21 11 42 11 5 18 10 19 76 83 52 100 100 100 100 100 100 100 98 51 3 1
44 52 5 5 5 10 80 6 50 6 84 99 98 100 98 100 100 100 100 100 100 100 100 100 100 100 100 99 98 36 21 6 5 5 5 0 61 99 7 6 86 100 100 100 100 100 100 83 7
6 16 57 95 53 5 6 5 86 14 5 5 7 10 57 51 94 100 100 100 100 100 100 100 100 100 100 100 100 100 100 100 67 10 0 0 0 0 76 34 33 12 61 100 94 100 100 100 100
87 56 96 100 98 84 90 7 35 5 3 3 0 5 63 99 100 74 80 100 92 99 100 100 100 100 100 100 100 100 100 100 100 100 100 80 6 6 5 20 44 52 88 6 37 57 64 48 58
91 98 97 100 100 100 100 94 57 99 3 5 91 74 100 100 100 100 89 39 68 25 67 34 67 100 100 100 100 100 100 100 100 100 100 100 100 18 46 5 5 1 5 10 9 5 5 6 9
100 100 100 100 100 100 100 100 100 99 99 46 100 58 97 100 99 99 99 100 100 96 97 93 96 100 100 81 100 100 100 100 100 100 100 100 100 100 100 50 5 3 5 5 5 5 5 7 51
100 100 100 100 100 100 100 94 7 5 73 97 100 100 100 76 30 30 11 87 99 49 19 10 11 6 7 46 79 100 100 78 69 61 67 100 85 90 100 100 82 22 21 6 5 5 9 54 59
100 100 100 88 100 100 58 6 24 77 100 6 6 10 15 66 98 100 100 100 96 100 41 5 71 95 26 5 3 3 1 7 94 21 34 5 3 5 5 40 97 10 14 11 55 14 36 70 94
100 100 100 100 100 34 97 20 52 98 100 100 79 4 4 6 9 35 60 92 100 100 100 89 26 100 100 52 3 1 2 1 3 40 71 98 22 5 5 3 0 39 20 50 74 100 49 15 64

GFSSGP_prec_cloud_021.txt.gz
Cloud_Cover
0 0 0 0 0 0 0 0 0 0 0 0 0 0 0 0 0 0 0 0 0 0 1 1 0 0 0 0 0 4 5 6 67 43 45 29 8 7 34 19 85 94 46 96 100 90 100 97 100
0 0 0 0 0 0 0 0 0 0 0 0 0 0 0 0 0 0 0 0 0 0 0 7 0 0 0 13 16 0 5 5 5 33 99 96 100 98 92 98 89 99 96 99 99 19 72 99 97
5 1 0 0 0 0 0 0 0 0 0 0 0 0 0 0 0 0 0 0 0 0 0 4 0 0 0 0 0 0 0 2 13 5 8 71 75 30 43 100 94 34 34 100 95 97 99 96 63
4 0 2 0 0 0 0 0 0 0 0 0 0 0 0 0 0 0 0 0 0 0 0 0 0 0 0 0 0 0 0 2 6 8 5 15 25 20 7 7 8 34 65 100 59 98 100 92 79
0 5 0 0 0 0 0 0 0 0 0 0 0 0 0 0 0 0 0 0 0 0 0 0 0 2 0 2 0 0 0 0 0 0 0 6 4 3 5 21 5 30 100 100 86 36 44 77 100
0 1 1 0 0 0 0 0 0 0 0 0 0 0 0 0 0 0 0 0 0 0 0 0 18 4 0 2 2 0 0 0 0 0 0 0 1 0 0 3 67 83 100 100 100 6 5 89 99
1 0 0 0 0 0 0 0 0 0 0 0 0 0 0 0 0 0 0 0 0 0 0 11 31 37 44 14 0 0 0 0 0 0 0 0 0 1 0 0 0 1 53 100 100 7 5 21 95
0 0 0 0 0 0 0 0 0 0 0 0 0 0 0 0 0 0 0 0 0 0 0 7 33 99 65 32 40 7 0 13 0 0 0 0 0 44 0 0 0 0 0 28 99 2 0 1 5
0 0 0 0 0 0 0 0 0 0 0 0 0 0 0 0 0 0 0 0 0 0 0 1 25 72 94 99 75 98 57 10 10 0 1 17 6 100 42 0 0 0 0 0 33 0 0 0 0
0 0 0 0 0 0 0 0 0 0 0 0 0 0 0 0 0 0 0 0 0 0 0 0 19 50 63 87 100 100 99 41 53 84 100 100 65 95 100 55 32 4 0 0 9 0 0 0 0
0 0 0 0 0 0 0 0 0 0 0 0 0 0 0 0 0 0 0 0 0 0 0 0 0 5 75 100 100 100 100 100 100 100 100 100 100 99 100 100 100 98 39 3 0 0 0 0 0
4 3 0 0 0 0 0 0 0 0 0 0 0 0 0 0 0 0 0 0 0 0 0 0 0 0 23 39 97 100 100 100 98 98 100 100 100 100 100 100 100 100 100 100 21 0 0 0 0
100 6 5 5 3 46 5 2 2 0 0 0 0 0 0 0 0 0 0 0 0 0 0 0 0 0 3 38 50 65 100 100 100 100 100 71 85 90 100 100 100 100 100 100 98 7 0 0 0
29 5 5 5 5 6 5 5 4 0 0 0 5 2 0 0 0 0 0 0 0 0 0 0 0 0 1 24 39 48 97 100 100 100 100 64 21 36 14 100 100 100 100 100 35 0 0 0 0
5 5 5 5 5 5 5 3 0 0 0 0 0 27 49 5 5 3 4 4 3 0 3 0 0 0 0 6 16 29 53 99 100 83 53 62 100 100 100 100 100 100 100 100 100 99 3 0 0
5 5 5 5 5 6 21 69 5 3 0 0 0 0 30 61 18 86 95 9 1 3 5 5 5 5 1 0 13 21 13 71 91 100 100 100 74 96 100 100 100 100 100 100 100 100 92 12 0
15 5 7 36 5 5 44 85 5 5 5 5 4 5 5 5 0 19 14 23 5 10 5 5 5 18 83 39 13 28 64 100 100 100 100 100 100 100 100 94 100 100 93 100 100 100 100 100 31
12 22 61 88 5 5 47 100 9 6 54 53 55 86 20 68 47 27 5 89 36 5 1 4 8 60 38 89 100 53 47 59 100 100 100 100 100 100 100 100 100 100 100 100 100 100 100 100 100
10 36 94 93 5 17 7 6 28 5 5 5 5 5 60 92 100 100 100 100 97 62 100 99 59 97 30 5 5 100 100 87 100 99 99 100 100 100 100 100 100 100 100 100 100 100 100 100 100
5 5 22 8 5 5 5 20 5 5 5 5 5 4 5 5 33 50 55 38 100 97 48 13 5 38 53 18 5 17 99 100 100 100 16 5 9 1 27 80 87 90 100 100 100 100 100 100 100
5 5 4 4 4 1 5 5 12 5 5 5 5 5 4 4 4 5 3 5 5 5 12 47 91 100 5 17 14 4 13 85 100 100 100 99 38 90 60 10 8 5 5 96 100 100 100 100 100
94 5 5 5 5 5 6 5 85 50 75 9 5 6 5 5 5 5 5 3 3 1 5 22 5 5 0 5 12 69 37 12 62 35 100 100 100 100 90 47 84 94 62 9 78 100 100 100 100
57 10 2 3 1 5 94 16 6 100 86 43 12 6 7 5 6 11 17 5 5 6 8 5 5 3 4 5 4 0 24 95 72 44 68 90 100 100 100 100 100 100 100 100 100 100 34 100 100
99 35 12 5 3 5 11 8 22 18 35 45 9 16 60 5 5 5 4 2 3 4 4 1 5 5 5 4 4 2 5 5 10 70 100 100 100 100 100 100 100 100 100 100 100 100 100 100 56
82 21 44 45 77 80 20 41 53 7 49 79 95 7 10 50 5 5 5 5 5 1 0 2 1 2 2 2 2 5 5 4 3 5 99 100 100 100 100 100 100 100 100 100 100 100 88 91 100
96 100 100 10 95 98 95 85 99 98 58 94 99 97 90 5 19 10 10 19 17 5 5 5 5 5 6 23 5 5 5 4 0 0 69 100 100 100 100 100 90 100 100 100 100 100 100 95 42
100 100 92 20 85 73 90 100 100 97 100 61 93 98 8 5 5 5 4 7 18 71 100 100 92 100 67 100 98 17 11 44 14 1 0 41 100 100 100 100 100 100 98 99 100 100 100 100 98
100 61 90 100 76 86 6 36 96 98 82 100 100 100 81 46 6 7 97 100 100 100 100 100 83 100 100 100 100 100 85 66 98 91 85 30 5 9 55 98 86 100 100 100 98 100 95 86 20
100 90 100 68 84 100 16 48 17 99 100 100 100 98 21 6 87 100 67 73 73 92 100 100 100 100 100 100 89 59 58 11 3 5 14 42 16 0 0 0 2 5 30 63 82 7 60 58 91
40 91 78 55 68 69 34 5 68 100 100 100 99 19 5 71 100 100 100 100 100 100 100 100 100 100 11 0 1 0 0 0 0 0 0 0 0 0 0 0 0 0 1 5 5 5 5 28 6

GFSSGP_prec_cloud_024.txt.gz
Cloud_Cover
0 0 0 0 0 0 0 0 0 0 0 0 0 0 0 0 0 0 0 0 0 0 0 2 0 0 0 0 0 1 5 5 8 7 38 16 34 5 73 67 14 36 5 92 100 30 11 8 14
0 0 0 0 0 0 0 0 0 0 0 0 0 0 0 0 0 0 0 0 0 0 0 17 0 0 0 0 0 0 4 68 7 5 5 9 14 7 25 32 5 57 75 81 99 11 56 68 100
5 0 0 0 0 0 0 0 0 0 0 0 1 0 0 0 0 0 0 0 0 0 1 5 0 0 0 7 5 0 0 2 5 5 5 52 7 5 5 12 8 60 16 84 99 11 5 46 57
5 0 2 0 0 0 0 0 0 0 0 0 0 0 0 0 0 0 0 0 0 0 0 2 0 0 0 0 0 0 0 0 10 5 5 14 18 7 5 60 11 21 5 100 100 12 36 63 69
5 5 0 1 0 0 0 0 0 0 0 0 0 0 0 0 0 0 0 0 0 0 0 0 0 0 0 0 8 10 2 4 2 16 2 19 23 5 5 6 67 70 100 100 100 58 64 43 51
3 1 1 0 0 0 0 0 0 0 0 0 0 0 0 0 0 0 0 0 0 0 0 0 30 10 0 11 0 0 0 0 0 0 0 5 14 2 5 5 5 5 32 79 95 93 7 7 66
0 0 0 0 0 0 0 0 0 0 0 0 0 0 0 0 0 0 0 0 0 0 0 0 8 74 60 11 0 0 0 0 0 0 0 0 0 0 0 0 1 4 5 5 53 89 40 16 5
0 0 0 0 0 0 0 0 0 0 0 0 0 0 0 0 0 0 0 0 0 0 0 0 20 95 100 79 73 25 2 0 0 0 0 0 0 0 0 0 0 0 0 0 0 51 5 5 8
0 0 0 0 0 0 0 0 0 0 0 0 0 0 0 0 0 0 0 0 0 0 0 0 5 90 100 100 89 100 61 2 0 0 0 0 0 90 100 44 18 14 2 0 0 0 0 0 0
0 0 0 0 0 0 0 0 0 0 0 0 0 0 0 0 0 0 0 0 0 0 0 0 0 46 100 100 100 100 100 82 2 25 83 100 96 74 100 100 100 100 98 39 2 0 0 0 0
0 0 0 0 0 0 0 0 0 0 0 0 0 4 1 0 0 0 0 0 0 0 0 0 0 0 86 100 100 100 100 99 59 100 100 100 100 100 100 100 100 100 100 100 99 35 0 0 0
5 5 2 5 5 5 5 5 0 4 3 3 0 0 0 5 2 0 0 0 0 0 0 0 0 0 0 99 100 100 100 100 100 99 100 100 100 100 100 100 100 100 100 100 100 100 21 0 0
6 4 2 2 5 42 5 5 0 0 1 4 5 1 1 1 0 3 0 3 1 0 0 0 0 0 0 54 100 100 100 100 100 100 100 100 100 100 100 100 100 100 100 100 100 75 2 0 0
9 4 4 0 2 2 10 47 4 0 0 0 0 0 0 1 5 8 5 18 43 37 5 4 4 3 3 16 100 100 100 100 100 100 75 100 100 49 56 98 65 39 100 100 100 100 88 0 0
40 6 5 5 0 2 4 0 0 0 0 0 0 0 0 0 0 10 99 100 100 70 98 55 5 55 37 85 100 98 100 100 100 100 100 100 100 98 100 100 100 100 100 100 100 100 100 96 36
5 72 25 5 5 5 18 14 4 5 4 2 0 0 0 0 0 0 7 9 85 100 100 100 78 86 100 100 100 100 100 100 100 100 100 100 100 100 100 100 100 100 92 100 100 100 94 90 100
46 55 10 5 5 5 10 17 5 5 5 3 4 5 5 3 1 0 5 2 5 5 5 31 10 44 100 100 100 100 100 95 100 100 100 100 100 100 100 100 100 100 100 100 100 100 99 100 100
5 18 67 5 5 5 85 100 53 7 19 5 5 7 69 84 47 35 5 5 4 5 5 5 15 30 49 100 100 100 100 99 100 99 100 100 100 100 100 100 100 100 100 100 100 100 100 100 100
5 5 6 5 4 20 29 5 6 5 5 5 5 5 5 44 9 56 62 5 11 6 5 5 6 5 5 6 42 100 50 31 23 15 0 100 100 100 100 100 97 100 100 100 100 100 100 100 100
39 4 5 5 5 5 29 36 10 5 5 5 0 1 5 17 20 28 50 75 64 58 61 39 51 53 57 5 1 1 7 10 64 1 0 0 3 5 5 28 100 86 81 49 5 1 3 11 62
5 5 1 5 3 5 4 3 5 4 5 0 4 8 5 4 4 5 3 4 5 5 5 12 6 47 22 10 5 5 5 4 0 0 3 1 2 2 2 5 6 93 100 70 44 33 64 11 13
5 0 5 0 3 5 5 4 5 11 5 5 6 7 1 1 4 3 2 2 5 5 5 1 34 72 77 9 10 5 5 7 10 5 4 2 5 2 5 5 5 23 52 100 100 100 90 73 36
5 5 5 5 19 66 100 4 5 7 88 100 99 73 55 14 6 2 5 5 4 5 5 4 7 25 5 5 5 5 5 4 4 0 0 0 0 0 0 5 5 5 22 73 100 100 100 100 100
84 34 5 19 39 11 97 71 99 100 100 100 100 100 100 97 91 52 45 63 5 6 67 46 42 46 5 30 20 21 5 5 5 4 5 3 4 2 1 7 34 6 2 73 100 100 100 100 100
5 21 41 31 100 99 100 100 100 98 92 100 100 100 90 20 64 37 30 69 97 82 20 100 61 8 9 5 8 5 44 47 6 48 83 89 41 38 43 5 5 14 46 75 36 100 100 100 100
23 40 44 36 92 87 98 94 100 91 66 100 100 100 100 100 30 41 5 5 5 8 68 5 8 32 60 84 99 91 100 100 100 100 100 92 100 100 99 52 3 1 4 15 9 40 100 100 100
100 100 44 8 66 20 98 100 98 100 100 100 94 9 76 93 6 5 5 5 5 5 6 8 10 68 96 97 96 80 97 100 100 100 100 100 100 100 100 100 98 12 26 3 2 5 14 91 100
100 100 100 100 60 75 100 100 100 100 100 92 5 29 13 12 5 5 5 61 7 81 100 100 100 100 96 95 100 100 100 100 100 100 90 94 100 98 100 100 100 100 88 62 5 5 5 5 20
100 100 100 100 53 14 39 74 100 100 100 100 16 41 9 5 10 100 100 41 5 5 20 71 44 92 90 100 100 84 8 3 4 6 5 5 4 3 0 0 0 1 0 3 4 5 5 5 5
100 100 100 100 100 53 34 85 76 48 47 23 5 5 35 6 100 100 100 40 100 74 24 100 100 100 100 94 15 4 5 28 50 61 42 18 5 3 0 0 0 0 0 0 0 0 0 0 0

GFSSGP_prec_cloud_027.txt.gz
Cloud_Cover
0 0 0 0 0 0 0 0 0 0 0 0 0 0 0 0 0 0 0 0 0 0 0 0 0 3 0 0 0 0 0 0 5 11 17 6 6 6 18 5 5 5 5 90 9 5 32 69 100
0 1 0 0 0 0 0 0 0 0 0 1 0 0 0 0 0 0 0 0 0 0 0 11 0 0 0 0 0 0 0 0 0 5 5 5 10 5 10 6 5 5 16 13 78 5 5 5 5
0 0 0 0 0 0 0 0 0 0 0 0 0 0 0 0 0 0 0 0 0 0 0 17 0 0 0 0 0 0 0 0 0 1 5 5 5 5 5 5 5 5 5 56 90 28 15 5 5
0 0 0 0 0 0 0 0 0 0 0 0 0 0 0 0 0 0 0 0 0 0 0 2 0 0 0 0 100 1 0 0 0 0 0 16 9 0 0 2 5 24 5 11 85 10 11 6 5
0 0 0 0 0 0 0 0 0 0 0 0 0 0 0 0 0 0 0 0 0 0 0 0 0 0 0 0 16 49 0 1 0 0 0 7 7 5 5 2 0 37 75 31 85 100 0 0 3
0 0 0 0 0 0 0 0 0 0 0 0 0 0 0 0 0 0 0 0 0 0 0 2 24 18 0 0 0 73 22 0 33 3 0 0 8 0 0 1 4 4 5 5 5 84 5 5 5
0 0 0 0 0 0 0 0 0 0 0 0 0 0 0 0 0 0 0 0 0 0 0 5 14 100 83 2 1 35 51 0 0 5 0 0 0 0 0 0 0 2 5 5 5 8 5 4 3
0 0 0 0 0 0 0 0 0 0 0 0 0 0 0 0 0 0 0 0 0 0 0 4 26 97 100 66 100 18 0 0 0 0 0 0 0 0 0 1 15 39 12 0 2 5 5 4 1
0 0 0 0 0 0 0 0 0 0 0 0 0 0 0 0 0 0 0 0 0 0 0 0 2 98 100 100 100 100 93 12 2 1 0 7 1 0 68 94 100 100 100 88 5 0 0 0 0
0 4 0 0 0 0 0 0 0 0 0 0 0 0 0 0 0 0 0 0 0 0 0 0 0 0 99 100 100 100 100 93 4 0 36 100 100 95 100 100 100 100 100 100 100 73 2 0 0
0 2 5 4 0 0 0 0 0 0 0 0 0 0 0 0 0 0 0 0 0 0 0 0 0 0 0 100 100 100 100 100 39 0 90 100 100 100 100 100 100 100 100 100 99 100 97 5 0
0 4 5 0 2 0 0 0 0 4 0 0 0 0 3 5 55 17 9 5 5 1 5 5 5 3 3 4 100 100 100 100 100 100 100 100 100 100 100 100 100 100 100 100 100 100 57 0 0
2 4 5 5 3 5 0 0 2 4 0 0 0 0 0 0 0 2 45 80 72 47 17 58 91 54 5 5 46 99 100 100 100 96 100 100 100 100 100 100 99 66 100 77 100 100 100 63 0
1 5 5 5 3 0 0 0 0 0 0 0 0 0 0 0 0 0 0 0 20 84 58 17 23 97 35 12 100 100 100 100 100 99 69 100 100 100 100 100 100 100 92 78 95 100 100 100 72
5 5 6 2 1 5 5 0 5 5 5 5 0 0 0 0 0 0 0 0 0 4 15 16 100 100 100 100 100 100 100 100 100 100 100 100 100 100 100 100 100 99 100 100 100 100 100 100 100
5 12 5 5 5 22 5 2 4 4 5 2 0 0 0 0 0 0 0 0 0 0 0 83 100 100 100 100 100 100 100 100 100 100 98 99 100 100 100 100 100 100 100 100 100 100 100 99 85
5 38 5 5 5 5 5 5 5 5 5 5 6 5 2 0 0 1 0 0 0 0 2 80 100 100 100 100 100 100 100 95 98 100 100 100 100 100 100 100 100 100 100 100 100 100 100 100 100
6 23 5 5 5 5 5 12 5 5 5 5 5 5 0 0 0 0 0 5 4 0 0 14 100 100 100 100 100 100 100 58 94 100 100 100 100 92 100 100 100 100 100 100 100 100 100 100 100
18 20 10 5 0 5 5 65 99 7 8 5 5 5 1 0 0 0 2 4 4 4 5 1 62 100 100 100 100 100 5 5 4 4 4 0 4 5 21 4 0 5 0 0 4 8 4 21 5
66 25 93 5 5 3 0 32 79 5 5 0 3 3 2 5 5 6 29 62 88 11 5 5 3 33 36 8 2 3 4 5 6 5 5 1 3 2 0 0 0 0 0 0 0 0 0 1 5
5 41 81 10 5 0 0 3 3 5 5 5 5 2 2 26 68 66 85 22 63 46 7 66 38 35 6 5 5 4 5 1 1 19 5 5 0 0 0 0 0 0 0 1 2 2 3 4 3
20 79 87 34 2 0 1 5 5 5 7 34 31 34 63 100 100 88 89 100 99 85 96 100 97 100 69 7 12 69 47 50 6 20 24 5 5 3 0 0 2 5 16 42 36 7 78 91 87
24 5 5 5 5 5 100 1 57 100 100 81 100 100 76 19 68 58 60 14 5 5 5 66 83 5 6 9 72 36 5 5 5 5 5 5 3 5 5 5 5 5 4 44 90 100 100 100 99
100 62 5 23 5 16 71 5 100 100 100 100 100 100 100 100 88 5 5 5 15 5 3 5 5 5 3 5 5 69 18 21 15 63 72 75 85 93 100 97 100 97 100 95 43 20 30 88 100
83 71 34 10 30 5 63 8 100 74 100 100 100 100 100 100 97 84 100 100 100 88 38 7 5 5 5 5 5 13 5 70 86 100 100 100 100 100 100 100 100 100 100 100 99 100 89 85 66
49 80 99 94 63 100 100 100 100 100 100 100 100 100 100 100 100 100 100 100 72 60 41 21 5 43 5 5 5 45 82 72 77 81 79 96 100 100 100 100 100 100 100 100 100 100 100 100 100
99 100 100 100 100 100 98 100 100 100 99 100 100 100 100 100 89 74 89 6 5 5 5 5 5 2 5 5 50 100 100 100 96 46 74 96 100 100 100 100 99 92 87 100 100 100 100 100 100
100 100 100 100 100 99 94 100 100 100 100 100 100 100 100 100 100 100 100 64 9 34 5 4 5 16 66 73 35 90 90 48 70 43 80 98 99 97 56 7 65 87 8 5 2 19 57 100 100
100 100 100 100 100 100 100 100 100 100 100 88 93 100 100 74 62 30 14 16 52 12 5 62 86 63 46 5 41 100 100 5 75 100 100 96 40 7 8 19 15 6 5 5 5 5 0 0 0
100 100 100 100 100 100 100 100 100 100 100 100 5 5 77 73 61 12 5 5 6 27 92 100 89 82 69 6 6 99 38 16 6 82 15 5 5 0 4 0 4 5 2 0 0 0 0 0 0

GFSSGP_prec_cloud_030.txt.gz
Cloud_Cover
0 0 0 0 0 0 0 0 0 0 0 0 0 0 0 0 0 0 0 0 0 0 0 1 0 2 0 0 0 0 0 30 98 100 100 14 6 12 7 36 100 92 26 21 6 59 58 5 71
0 0 0 0 0 0 0 0 0 0 0 0 0 0 0 0 0 0 0 0 0 0 0 1 0 0 0 6 0 0 0 0 1 7 94 40 5 24 30 18 31 79 25 5 14 5 5 22 5
0 0 0 0 0 0 0 0 0 0 0 0 0 0 0 0 0 0 0 0 0 0 0 4 0 0 0 0 0 0 0 0 0 0 5 6 10 12 20 6 6 75 19 5 18 14 5 5 5
0 0 0 0 0 0 0 0 0 0 0 0 0 0 0 0 0 0 0 0 0 0 0 13 0 0 0 0 0 0 0 0 0 0 2 8 5 5 5 5 5 5 5 5 5 41 5 5 5
0 0 0 0 0 0 0 0 0 0 0 0 0 0 0 0 0 0 0 0 0 0 0 0 0 0 0 0 69 87 0 0 0 0 0 3 2 1 4 5 5 15 53 47 39 6 5 5 5
0 0 0 0 0 0 0 0 0 0 0 0 0 0 0 0 0 0 0 0 0 0 0 0 19 38 2 3 5 72 85 0 0 0 0 0 0 0 0 0 0 3 6 13 80 99 70 5 5
0 0 0 0 0 0 0 0 0 0 0 0 0 0 0 0 0 0 0 0 0 2 27 42 46 34 100 44 0 8 100 45 0 35 28 0 0 0 0 0 0 0 0 0 0 2 9 4 5
0 0 0 0 0 0 0 0 0 0 0 0 0 0 0 0 0 0 0 0 0 0 0 0 44 99 100 54 96 66 0 0 0 0 0 0 6 0 0 1 1 4 100 23 0 2 5 5 5
0 0 0 0 0 0 0 0 0 0 0 0 0 0 0 0 0 0 0 0 0 0 0 0 0 27 66 97 100 100 97 53 20 3 2 67 5 24 5 32 96 100 100 100 100 6 0 0 0
0 0 0 0 0 0 0 0 0 0 0 0 0 0 0 0 0 0 0 0 0 0 0 0 0 0 64 49 44 88 92 13 28 16 9 2 9 15 50 83 99 97 100 100 87 89 2 0 0
0 0 0 0 0 0 0 0 0 0 0 0 0 0 0 0 0 0 0 0 0 0 0 4 1 0 0 36 97 99 100 94 48 32 80 34 67 100 100 100 100 100 100 100 100 100 36 0 0
0 0 0 0 0 0 0 0 0 0 4 0 0 0 0 0 0 0 0 0 0 4 1 2 1 0 0 0 90 100 100 100 92 34 66 7 56 100 100 100 97 92 100 100 100 100 100 84 0
0 0 0 2 5 0 0 0 0 2 0 0 0 0 0 0 0 0 0 0 0 0 0 0 0 1 0 0 83 100 100 100 100 85 89 100 64 54 87 89 92 100 100 66 77 90 100 100 92
0 0 5 4 4 0 0 0 0 0 0 0 0 0 0 0 0 0 0 0 0 0 0 0 50 75 0 0 96 100 100 100 100 98 96 100 93 98 100 100 100 84 92 100 96 100 100 100 100
0 5 5 11 5 0 0 1 0 0 0 0 0 0 4 0 0 0 0 0 0 0 16 100 100 100 100 100 100 100 100 100 100 100 100 100 100 100 100 100 100 100 100 100 100 100 100 85 94
2 5 5 0 4 5 5 0 0 1 4 5 5 5 4 0 0 0 0 0 0 0 92 100 100 100 100 100 100 100 100 100 100 99 100 100 98 99 100 66 100 100 99 100 100 100 100 100 100
0 8 3 4 5 3 0 0 5 4 1 5 5 0 2 0 0 0 0 0 0 0 100 100 100 100 100 100 100 100 100 100 100 93 72 89 100 100 100 100 100 93 100 100 100 100 87 100 100
10 5 4 0 2 0 2 1 2 0 3 5 1 2 0 0 0 0 0 0 0 2 100 100 100 100 100 100 100 100 100 100 86 47 100 100 100 100 100 84 100 45 46 64 37 12 14 2 0
5 5 6 5 5 3 5 74 5 0 5 5 0 5 0 0 0 0 5 0 1 1 87 100 100 100 100 100 100 100 5 2 2 9 0 0 0 0 0 0 0 0 0 0 0 0 0 0 0
5 5 13 5 5 2 5 98 82 0 1 4 1 0 0 0 0 0 0 0 48 41 30 97 100 100 86 86 56 10 8 0 0 0 0 1 2 0 0 0 0 0 0 0 0 0 0 0 0
5 5 10 5 18 5 8 89 100 9 0 0 0 2 2 5 5 21 91 62 4 5 5 0 7 23 16 17 4 8 1 3 3 0 0 0 0 0 0 1 0 0 0 0 3 4 4 2 1
4 5 5 5 5 21 81 27 100 67 5 6 5 5 5 5 24 57 67 25 94 99 100 93 100 100 92 56 100 100 81 37 1 0 0 0 0 0 0 0 0 0 0 0 0 3 2 5 4
5 5 5 5 5 5 98 16 94 100 100 65 13 6 28 65 99 100 100 100 100 100 100 100 100 100 99 4 0 45 54 1 39 5 5 1 2 5 5 8 91 81 73 58 9 13 15 84 87
12 93 97 6 5 19 100 71 15 100 100 100 98 99 100 100 60 100 100 100 100 100 100 100 100 99 26 9 5 2 13 26 5 2 5 3 5 20 55 35 83 90 54 76 92 93 88 98 100
70 63 5 5 6 13 99 33 69 97 100 100 100 100 100 100 100 100 100 100 100 100 100 100 100 60 56 27 6 5 4 5 5 5 5 54 76 90 100 100 100 100 70 79 100 100 100 100 100
76 32 54 5 6 5 11 88 99 80 86 100 100 100 100 100 100 48 98 100 100 100 100 100 100 99 54 5 4 5 5 5 5 5 5 67 83 60 54 7 18 11 86 100 100 100 100 100 100
80 20 100 73 12 5 5 72 100 100 100 100 100 100 100 100 100 100 100 100 100 94 24 57 68 5 5 0 0 0 2 5 68 23 5 7 3 4 5 6 6 8 90 98 96 95 100 99 80
100 100 100 100 18 5 52 70 83 100 100 100 100 100 100 100 100 100 100 100 100 86 89 93 25 5 5 5 6 5 5 9 80 5 5 1 5 5 4 8 34 15 5 3 9 5 5 4 3
100 100 100 100 79 93 82 8 100 85 100 100 100 100 100 100 100 100 100 100 100 100 100 100 100 51 7 13 6 18 6 25 5 5 5 5 4 5 5 5 1 0 0 0 0 0 0 0 0
77 68 100 100 100 34 7 72 100 100 100 100 100 100 100 100 100 100 100 100 100 100 100 100 92 6 89 100 45 22 100 12 5 5 5 24 5 3 0 0 0 0 0 0 0 0 0 0 0

GFSSGP_prec_cloud_033.txt.gz
Cloud_Cover
0 0 0 0 0 0 0 0 0 0 0 0 0 0 0 0 0 0 0 0 0 0 12 1 0 0 0 0 0 5 26 14 100 100 100 100 100 79 92 100 99 100 100 100 100 70 100 100 100
0 0 0 0 0 0 0 0 0 0 0 0 0 0 0 0 0 0 0 0 0 0 1 16 0 0 0 0 0 0 2 14 54 100 100 100 100 98 74 5 55 100 22 97 98 73 27 5 16
0 0 0 0 0 0 0 0 0 0 0 0 0 0 0 0 0 0 0 0 0 0 1 9 0 12 5 7 0 0 0 0 2 84 90 55 70 100 99 25 46 81 12 7 12 96 67 5 5
0 0 0 0 0 0 0 0 0 0 0 0 0 0 0 0 0 0 0 0 0 0 1 43 0 0 29 1 0 0 0 0 0 5 32 100 99 97 55 83 25 15 13 11 63 26 5 14 5
0 0 0 0 0 0 0 0 0 0 0 0 0 0 0 0 0 0 0 0 0 0 0 8 0 0 0 0 0 14 0 10 18 3 3 6 41 74 100 100 100 100 90 78 32 70 88 95 42
0 0 0 0 0 0 0 0 0 0 0 0 0 0 0 0 0 0 0 0 0 0 0 24 19 38 14 0 0 62 22 0 0 0 0 0 0 0 1 6 47 95 100 100 84 42 44 56 58
0 0 0 0 0 0 0 0 0 0 0 0 0 0 0 0 0 0 0 0 0 0 0 10 23 7 98 94 3 0 0 0 0 0 0 0 0 51 0 0 0 2 8 79 36 39 9 97 93
0 0 0 0 0 0 0 0 0 0 0 0 0 0 0 0 0 0 0 0 0 0 0 0 31 98 85 42 90 100 64 0 0 0 0 0 6 0 0 0 1 45 100 49 1 0 0 4 5
0 0 0 0 0 0 0 0 0 0 0 0 0 0 0 0 0 0 0 0 0 0 0 0 0 0 57 100 100 95 100 98 20 8 4 67 11 13 9 4 0 0 66 91 98 0 0 0 0
5 1 0 0 0 0 0 0 0 0 0 0 0 0 0 0 0 0 0 0 0 0 0 0 0 0 0 18 94 92 95 17 13 13 16 1 24 71 93 12 39 94 24 66 99 88 14 0 0
0 0 0 0 0 0 0 0 5 1 0 0 0 0 0 0 0 0 0 0 0 0 0 0 0 0 0 0 72 33 1 0 94 64 48 35 16 0 0 61 96 100 89 93 72 100 88 2 0
0 0 0 0 0 0 0 0 5 0 0 0 0 0 0 0 0 0 0 0 0 0 0 0 0 0 0 0 57 100 67 67 18 100 45 58 5 92 76 100 100 73 84 100 81 82 100 82 40
0 0 0 0 0 0 0 0 0 0 0 0 0 0 0 0 0 0 0 0 0 0 0 0 0 0 0 0 59 100 100 92 98 100 88 84 73 32 49 83 91 85 100 100 100 62 15 87 100
0 0 0 4 5 0 0 2 0 0 0 0 0 0 0 0 0 0 0 0 0 0 0 0 42 40 0 2 78 100 100 100 100 100 96 88 98 80 100 100 100 100 100 100 100 96 94 98 80
0 0 0 5 0 3 1 0 5 0 0 0 0 0 0 0 0 0 0 0 0 0 30 100 100 100 78 100 100 100 100 100 100 79 94 84 86 100 100 100 100 100 100 100 100 100 100 100 40
0 0 3 5 5 5 0 5 1 0 0 0 0 0 0 0 0 0 0 0 0 0 100 100 100 100 100 100 100 100 100 100 100 98 100 100 92 86 98 99 90 89 100 100 100 100 100 100 100
0 2 5 3 3 5 5 3 0 3 4 4 4 0 0 0 0 0 0 0 0 10 100 100 100 100 100 100 100 100 100 100 100 100 100 92 62 43 100 100 100 100 100 100 98 100 31 44 26
5 83 5 1 2 5 5 1 1 5 5 5 0 0 2 0 0 0 0 0 0 44 94 100 100 100 100 96 100 100 100 100 87 3 13 5 97 56 83 52 19 69 3 4 6 0 1 0 0
5 5 5 2 0 3 5 5 5 5 5 5 5 0 0 5 1 0 0 0 0 59 100 100 100 100 100 100 100 100 100 54 1 25 16 0 0 4 0 0 0 0 0 0 0 0 0 0 0
5 5 98 2 5 2 5 12 4 4 42 14 4 0 3 40 9 5 0 0 0 57 100 100 100 100 100 97 8 14 47 76 11 0 0 0 0 0 0 0 0 0 0 0 0 0 0 0 0
5 5 44 2 2 0 4 42 6 3 7 39 5 5 0 0 0 0 0 0 0 6 99 100 100 100 100 86 86 97 100 100 80 5 0 0 0 0 0 0 0 0 0 0 0 0 0 0 0
5 5 5 5 2 0 1 7 70 98 5 6 5 5 0 0 0 2 5 48 20 5 15 100 100 100 100 100 100 100 100 100 100 66 5 4 0 0 0 0 0 0 0 0 4 4 5 5 5
5 6 6 5 2 0 2 2 94 100 100 51 6 26 22 5 5 5 5 5 39 14 36 100 100 100 100 100 100 100 100 100 100 100 99 5 4 0 0 0 0 2 5 5 5 8 12 59 99
5 22 68 33 3 4 12 18 5 92 100 100 100 97 34 5 5 5 5 5 5 7 78 84 100 100 100 100 100 100 97 52 5 10 5 0 0 1 5 3 5 5 18 44 23 5 5 5 1
5 6 5 5 13 5 14 96 5 81 100 100 100 100 92 5 5 25 85 23 22 86 100 100 100 100 100 100 100 100 15 5 3 2 5 5 5 3 22 5 5 5 5 5 0 4 0 3 0
5 5 29 9 5 7 5 1 34 99 90 100 100 100 81 32 31 59 98 100 100 100 100 100 100 100 100 100 100 100 100 74 73 65 72 7 67 100 27 54 35 79 3 2 1 3 0 0 0
16 92 100 80 5 5 12 98 92 100 100 100 100 74 99 100 100 100 100 99 100 100 100 100 100 100 100 100 100 100 100 100 92 89 6 14 48 5 99 9 15 4 0 0 2 2 0 0 0
100 73 99 100 25 32 1 4 33 100 100 100 100 91 100 100 55 51 100 100 100 100 100 100 100 100 100 100 100 89 74 33 5 5 13 95 78 42 44 54 8 1 0 0 0 0 0 0 0
92 19 38 56 10 5 5 10 22 23 97 100 100 100 100 100 99 100 100 100 100 100 100 100 100 100 100 100 100 99 100 100 52 97 86 5 3 14 5 1 3 0 0 0 0 0 0 0 0
67 99 100 100 100 100 65 24 6 46 100 100 100 100 100 100 100 100 100 100 100 100 100 100 100 100 100 100 100 21 5 5 81 73 3 5 9 5 5 1 5 0 1 0 0 0 0 0 0

GFSSGP_prec_cloud_036.txt.gz
Cloud_Cover
0 0 0 0 0 0 0 0 0 0 0 0 0 0 0 0 0 0 0 0 0 0 0 0 0 0 0 0 0 0 3 9 96 100 100 100 100 100 100 100 100 100 100 100 100 100 100 78 11
0 0 0 0 0 0 0 0 0 0 0 0 0 0 0 0 0 0 0 0 0 0 0 0 0 0 0 0 0 0 0 71 24 100 100 100 100 100 100 100 100 100 100 100 100 100 99 42 18
0 0 0 0 0 0 0 0 0 0 0 0 0 0 0 0 0 0 0 0 0 1 17 0 0 13 0 0 0 0 0 3 99 100 100 100 100 100 100 100 100 100 100 91 70 100 99 65 63
0 0 0 0 0 0 0 0 0 0 0 0 0 0 0 0 0 0 0 0 0 0 3 1 0 3 0 1 0 0 0 0 26 90 100 100 100 100 100 100 100 100 100 100 75 100 100 100 87
0 0 0 0 0 0 0 0 0 0 0 0 0 0 0 0 0 0 0 0 0 0 0 0 0 0 0 0 0 0 0 0 0 5 58 100 100 100 100 100 100 100 100 100 100 100 98 100 99
0 0 0 0 0 0 0 0 0 0 0 0 0 0 0 0 0 0 0 0 0 0 8 1 33 40 27 20 0 0 0 0 0 0 1 4 46 100 100 100 100 100 100 100 100 100 84 100 100
0 0 0 0 0 0 0 0 0 0 0 0 0 0 0 0 0 0 0 0 0 10 43 48 4 8 100 100 27 10 0 0 0 0 0 0 0 1 20 82 91 100 99 100 100 100 100 100 74
1 0 0 0 0 0 0 0 0 0 0 0 0 0 0 0 0 0 0 0 0 0 0 5 15 100 100 2 92 100 69 0 0 0 0 0 1 0 1 5 5 7 5 5 5 7 18 45 83
0 0 0 0 0 0 0 0 0 0 0 0 0 0 0 0 0 0 0 0 0 0 0 0 0 0 44 100 100 91 100 96 8 3 2 76 0 8 67 9 53 94 69 100 96 38 0 1 4
0 0 0 0 0 0 0 0 0 0 0 0 0 0 0 0 0 0 0 0 0 0 0 0 0 0 0 9 100 100 65 0 0 0 0 0 3 100 96 39 4 94 100 98 94 100 44 0 0
0 0 0 0 0 0 0 0 0 0 0 0 0 0 0 0 0 0 0 0 0 0 0 0 0 0 0 0 24 100 14 0 54 77 66 74 55 96 22 23 62 93 100 93 99 98 83 84 1
0 0 0 0 0 0 0 0 0 0 0 0 0 0 0 0 0 0 0 0 0 0 0 0 0 0 0 0 2 77 0 5 31 76 13 26 100 84 95 73 99 98 100 100 100 100 29 0 51
0 0 0 0 0 0 0 0 0 0 0 0 0 0 0 0 0 0 0 0 0 0 0 0 0 0 0 0 51 77 30 29 99 26 72 47 41 22 90 100 88 100 100 94 100 100 100 98 100
0 0 0 0 0 0 0 0 5 0 0 0 0 0 0 0 0 0 0 0 0 0 0 0 12 17 22 93 92 65 100 65 48 96 100 100 100 100 100 100 99 100 100 100 100 100 100 78 69
0 1 0 0 0 0 0 0 5 5 0 0 0 0 0 0 0 0 0 0 0 0 0 49 60 70 81 100 86 97 86 100 33 19 58 97 63 64 52 55 86 99 100 100 100 62 100 94 64
0 0 0 1 0 0 0 4 5 1 0 0 0 0 0 0 0 0 0 0 0 0 2 99 100 98 100 100 100 99 100 100 100 40 59 66 75 32 7 9 58 76 49 46 47 64 52 57 86
5 0 0 5 0 0 0 4 5 5 0 0 0 0 0 4 3 0 0 0 0 0 37 100 100 100 100 100 100 100 100 100 100 98 53 77 14 3 0 0 2 67 100 55 52 59 6 0 0
0 5 3 0 0 0 0 3 5 5 0 0 0 0 0 0 0 0 0 0 0 2 84 93 100 100 100 100 100 100 100 100 100 74 20 4 4 18 1 0 0 0 0 0 0 0 0 0 0
0 5 5 2 0 0 0 5 0 5 5 0 5 5 1 4 1 0 2 1 0 18 90 100 100 100 100 100 100 100 100 100 78 35 5 5 5 9 85 98 92 4 2 0 0 0 0 0 0
0 5 5 5 0 0 0 5 5 5 15 4 5 5 5 6 5 2 2 2 3 17 90 100 100 100 100 100 100 100 100 88 92 100 96 50 90 17 19 31 5 0 0 0 0 0 0 0 0
2 0 5 1 0 0 0 3 0 0 6 7 0 0 39 55 68 5 0 0 0 21 99 100 100 100 100 100 100 53 37 94 100 72 100 100 100 100 53 5 3 0 3 4 5 5 2 1 0
5 5 5 5 0 0 0 1 5 5 0 0 12 4 1 5 5 2 0 0 0 24 100 100 100 100 100 64 7 48 47 88 100 100 100 100 100 100 12 16 5 4 5 33 3 5 2 2 2
5 5 4 5 0 0 3 0 84 38 6 92 3 5 6 87 16 5 5 0 0 2 48 96 94 68 94 93 100 100 100 100 100 100 100 100 100 90 54 30 100 99 56 5 6 18 5 5 2
28 28 5 5 3 0 27 12 1 98 100 32 10 6 5 5 5 5 5 5 5 5 31 90 100 100 100 100 100 100 100 100 100 100 100 100 100 100 100 100 67 25 22 73 6 30 4 2 0
38 58 4 1 5 2 5 1 10 24 84 100 100 72 50 5 11 6 5 5 5 28 85 100 100 100 100 100 100 100 100 100 100 100 100 100 100 100 99 62 66 33 19 3 6 2 0 0 0
5 5 5 5 2 2 5 17 100 91 10 90 100 100 93 70 96 90 5 27 100 100 100 100 100 100 100 100 100 100 100 100 100 100 100 100 100 100 100 32 67 6 3 5 3 0 0 0 0
6 6 99 38 5 4 1 46 41 98 100 100 100 100 100 100 100 56 22 99 63 67 97 100 100 100 100 100 100 100 100 100 100 100 100 100 100 100 98 30 7 5 5 5 25 5 0 2 0
7 90 100 94 6 5 1 5 83 98 100 97 100 100 100 100 100 100 72 32 52 81 100 100 100 100 100 100 100 100 100 100 100 100 100 96 52 5 5 5 5 5 5 5 4 3 1 2 0
94 13 74 100 28 8 4 0 3 52 100 100 100 100 100 100 98 68 70 100 100 100 100 100 100 100 100 100 100 100 100 100 97 28 37 16 5 30 5 5 10 4 7 3 0 0 0 0 0
59 5 83 100 81 11 3 21 5 5 32 100 100 100 100 48 11 24 90 100 100 100 100 100 100 100 100 100 100 100 100 90 34 44 7 6 9 5 5 5 6 31 6 4 5 0 0 0 0

GFSSGP_prec_cloud_042.txt.gz
Cloud_Cover
0 0 0 0 0 0 0 0 0 0 0 0 0 0 0 0 0 0 0 0 0 0 0 0 0 0 0 0 0 0 87 98 14 94 15 100 100 100 94 100 100 100 95 73 5 19 92 66 18
0 0 0 0 0 0 0 0 0 0 0 0 0 0 0 0 0 0 0 0 0 0 0 0 0 0 0 0 0 0 0 62 90 100 50 100 100 66 100 98 66 100 100 100 92 23 26 5 5
0 0 0 0 0 0 0 0 0 0 0 0 0 0 0 0 0 0 0 0 0 0 0 0 0 0 0 0 0 0 0 0 0 1 9 100 95 99 70 84 5 42 100 100 100 97 100 49 10
0 0 0 0 0 0 0 0 0 0 0 0 0 0 0 0 0 0 0 0 0 0 0 0 0 0 0 0 0 0 0 0 0 0 4 100 100 100 13 6 76 50 36 5 98 100 100 100 74
0 0 0 0 0 0 0 0 0 0 0 0 0 0 0 0 0 0 0 0 2 12 0 0 0 0 0 0 0 0 0 0 0 1 0 4 64 100 100 100 100 100 73 100 100 74 100 100 100
0 0 0 0 0 0 0 0 0 0 0 0 0 0 0 0 0 0 0 0 0 46 90 0 14 0 0 0 0 0 0 0 0 0 0 4 13 43 100 100 100 100 100 100 100 100 72 100 100
0 0 0 0 0 0 0 0 0 0 0 0 0 0 0 0 0 0 0 0 0 0 1 20 46 99 70 42 8 0 0 0 0 0 0 0 0 0 0 76 100 100 100 100 100 100 100 100 100
0 0 0 0 0 0 0 0 0 0 0 0 0 0 0 0 0 0 0 0 0 2 0 19 87 14 12 30 100 78 0 0 0 0 0 0 0 0 0 10 85 99 100 100 100 100 100 100 100
0 0 0 0 0 0 0 0 0 0 0 0 0 0 0 0 0 0 0 0 3 24 0 0 82 97 100 85 51 98 86 13 0 0 0 34 0 10 3 24 0 12 2 4 60 100 100 100 100
0 0 0 0 0 0 0 0 0 0 0 0 0 0 0 0 0 0 0 0 0 0 6 14 1 0 6 95 100 100 98 10 7 1 24 9 8 31 94 100 2 0 0 0 0 6 59 50 32
0 0 0 0 0 0 0 0 0 0 0 0 0 0 0 0 0 0 0 0 0 0 0 0 0 0 5 14 100 100 100 100 27 51 40 32 93 100 100 100 96 36 0 0 0 0 0 0 0
0 0 0 0 0 0 0 0 0 0 0 0 0 0 0 0 0 0 0 0 0 0 0 0 0 0 0 0 75 99 100 100 78 36 20 100 100 100 100 100 100 100 99 14 1 0 1 21 0
2 0 0 0 0 0 0 0 0 0 0 0 0 0 0 0 0 0 0 0 0 0 0 0 1 1 0 6 97 96 100 100 100 73 96 100 100 100 100 100 100 100 100 100 24 4 100 22 98
5 0 0 0 0 0 0 0 0 0 0 0 0 0 0 0 0 0 0 0 0 0 0 0 8 60 19 55 84 100 100 100 100 100 100 100 100 100 100 100 100 100 100 100 47 42 43 92 67
5 1 0 0 0 0 0 0 0 0 0 0 0 0 0 0 0 0 0 0 0 0 0 0 17 73 88 100 98 100 100 100 100 100 100 100 100 100 100 100 100 100 100 100 89 45 83 97 97
5 5 0 0 0 0 0 0 0 0 0 0 0 0 0 0 0 0 0 0 0 0 0 0 56 99 97 46 100 99 100 88 100 100 100 100 100 100 100 100 100 100 100 100 96 83 38 10 20
5 5 3 0 0 0 0 0 0 0 0 0 0 0 0 0 0 0 0 0 0 0 0 0 11 23 26 97 99 100 100 99 90 59 98 100 100 100 100 97 100 99 54 15 1 5 5 5 4
5 2 5 1 0 4 3 2 0 0 0 0 0 0 0 0 0 0 0 0 0 0 0 0 5 14 9 65 99 100 100 98 100 96 74 100 60 23 0 1 4 1 0 0 5 42 97 5 26
5 5 5 5 0 1 5 5 0 0 0 0 0 0 0 0 0 0 0 0 0 0 0 0 0 52 75 73 73 100 62 100 100 98 78 38 11 0 5 1 1 4 1 5 26 5 7 100 100
99 6 7 2 0 0 5 23 2 0 5 5 0 0 0 0 0 0 0 0 0 0 0 0 1 10 50 20 72 34 100 100 100 100 83 1 2 5 5 2 52 100 76 100 100 100 100 91 8
100 48 6 2 0 0 0 18 5 10 12 6 5 0 0 0 0 0 0 0 0 0 0 2 4 5 5 35 95 100 100 96 90 88 37 5 5 18 5 84 100 100 100 97 100 100 100 100 100
66 100 29 5 0 0 0 9 45 78 14 5 5 0 3 4 1 0 0 0 0 0 0 0 0 0 49 100 100 90 96 76 94 53 16 86 91 11 94 100 100 100 100 100 100 100 100 100 100
100 96 5 1 0 0 5 0 98 100 93 24 5 5 5 5 0 0 0 0 5 2 0 2 5 24 44 100 100 100 100 99 100 100 100 100 100 100 100 100 100 100 100 100 100 100 100 100 100
100 15 5 0 0 0 41 0 15 100 100 31 5 5 5 1 5 5 0 0 0 0 0 7 15 22 99 100 100 100 100 100 100 100 98 100 100 100 100 100 99 96 100 100 100 100 100 100 71
99 80 2 0 0 0 1 0 94 99 100 100 82 8 3 5 5 5 5 5 5 4 3 9 6 66 100 100 100 100 100 100 99 88 100 100 100 92 100 100 100 100 100 100 100 100 70 14 6
100 59 2 0 3 2 0 1 5 5 79 100 100 100 97 31 5 12 5 5 5 5 5 5 6 70 95 100 76 100 100 100 100 100 100 100 99 100 100 98 80 100 100 100 91 69 6 7 5
23 1 89 6 23 27 0 0 0 0 5 74 100 52 6 10 5 9 6 5 5 5 6 14 56 75 66 23 92 100 100 100 97 83 100 100 90 46 92 100 100 100 61 34 8 5 5 5 5
66 88 15 3 0 20 1 0 0 0 1 5 10 18 17 5 5 6 45 95 93 88 99 100 81 15 38 100 100 100 95 88 100 96 25 29 95 100 100 98 78 53 17 35 26 30 28 5 5
100 20 6 60 5 5 5 0 3 1 5 5 3 5 13 5 5 5 5 62 100 100 98 16 36 70 93 95 100 97 24 5 61 100 99 100 100 100 92 62 50 75 86 51 87 14 6 5 5
32 2 3 7 4 2 1 23 17 5 5 5 5 5 16 8 5 5 20 51 71 76 15 5 39 51 42 31 92 100 85 30 100 100 100 100 47 10 33 45 43 39 56 81 80 24 5 5 5

GFSSGP_prec_cloud_045.txt.gz
Cloud_Cover
0 0 0 0 0 0 0 0 0 0 0 0 0 0 0 0 0 0 0 0 0 0 0 0 0 0 0 0 5 1 82 100 100 97 100 46 100 88 94 93 98 100 97 100 96 71 100 96 46
0 0 0 0 0 0 0 0 0 0 0 0 0 0 0 0 0 0 0 17 0 2 0 0 0 0 0 0 0 0 0 1 77 46 5 29 68 100 100 83 85 100 100 99 100 95 86 100 10
0 0 0 0 0 0 0 0 0 0 0 0 0 0 0 0 0 0 0 0 5 16 0 0 0 0 0 0 0 0 0 0 4 6 14 3 56 100 98 100 100 51 94 98 97 100 100 95 86
0 0 0 0 0 0 0 0 0 0 0 0 0 0 0 0 0 0 0 0 10 26 0 0 0 0 0 0 0 0 0 0 0 0 29 3 17 68 59 100 99 42 100 88 38 75 100 100 100
0 0 0 0 0 0 0 0 0 0 0 0 0 0 0 0 0 0 0 0 6 22 1 0 0 0 0 0 0 0 0 0 0 2 1 8 12 5 18 100 100 32 93 97 99 86 57 78 45
0 0 0 0 0 0 0 0 0 0 0 0 0 0 0 0 0 0 0 5 7 9 4 1 4 0 0 0 0 0 0 0 0 0 1 12 16 0 66 100 100 100 98 82 19 36 17 6 16
0 0 0 0 0 0 0 0 0 0 0 0 0 0 0 0 0 0 0 0 0 3 24 23 26 13 0 0 0 0 0 0 0 0 0 0 0 0 0 76 100 100 100 100 100 96 97 100 100
0 0 0 0 0 0 0 0 0 0 0 0 0 0 0 0 0 0 0 0 0 0 0 14 51 95 87 93 100 61 0 0 0 0 0 0 0 0 0 0 0 0 4 97 100 100 100 100 100
0 0 0 0 0 0 0 0 0 0 0 0 0 0 0 0 0 0 0 8 21 14 10 30 99 97 38 20 78 100 9 3 2 0 0 4 0 0 0 59 8 0 0 0 0 22 45 44 57
0 0 0 0 0 0 0 0 0 0 0 0 0 0 0 0 0 0 0 0 18 23 7 0 75 100 100 100 100 100 98 8 22 46 49 40 46 47 80 100 100 31 0 0 0 0 0 0 0
0 0 0 0 0 0 0 0 0 0 0 0 0 0 0 0 0 0 0 0 0 1 11 0 0 9 1 12 100 100 100 90 73 100 100 100 100 100 87 100 100 100 50 0 0 0 0 0 0
5 5 1 0 0 0 0 0 0 0 0 0 0 0 0 0 0 0 0 0 0 0 0 0 0 1 0 37 96 100 100 100 100 100 100 75 95 100 100 100 100 100 97 19 3 0 0 32 0
5 8 8 1 0 0 0 0 0 0 0 0 0 0 0 0 0 0 0 0 0 0 0 0 0 0 0 2 91 100 100 100 100 100 67 99 68 100 100 100 100 100 100 100 24 30 55 21 17
59 98 76 0 0 0 0 0 0 0 0 0 0 0 0 0 0 0 0 0 0 0 0 0 3 7 15 35 97 100 100 100 100 100 100 100 100 100 100 100 100 100 100 100 100 59 94 100 100
6 8 5 2 1 0 0 0 0 0 0 0 0 0 0 0 0 0 0 0 0 0 0 0 17 96 85 7 84 100 73 100 100 100 100 100 100 100 100 100 100 100 100 100 100 100 100 100 100
5 4 6 5 5 0 0 0 0 0 0 0 0 0 0 0 0 0 0 0 0 0 0 0 10 100 99 100 59 99 100 100 100 100 100 100 100 100 100 100 100 100 100 100 100 100 87 3 15
0 5 6 5 0 0 0 0 0 0 0 0 0 0 0 0 0 0 0 0 0 0 0 0 0 74 100 100 28 75 100 100 100 100 76 100 100 100 100 100 100 100 100 100 97 24 4 5 5
5 5 32 5 1 1 2 4 0 0 0 0 0 0 0 1 0 0 0 0 0 0 0 0 13 100 100 76 11 99 74 100 100 100 100 100 100 100 100 100 100 100 68 17 2 2 36 40 20
5 5 72 55 5 0 5 5 0 5 5 3 0 0 0 0 0 0 0 0 0 7 13 1 13 95 99 36 59 81 70 100 100 98 88 100 100 100 93 46 8 0 0 0 5 16 5 18 6
5 5 75 71 5 0 0 5 5 0 5 5 10 0 0 0 0 0 0 0 0 7 11 4 4 32 75 30 0 1 95 68 100 100 89 100 96 32 0 0 0 0 5 5 7 26 78 80 12
62 78 99 19 19 0 0 2 8 53 4 0 5 5 0 0 0 0 0 0 0 7 20 7 1 4 20 33 52 75 100 68 96 100 100 100 81 20 5 5 8 21 38 61 10 99 100 100 77
71 84 49 12 3 0 0 0 34 100 100 84 3 0 5 4 0 0 0 0 0 0 2 0 0 6 25 48 50 7 4 5 81 100 100 100 98 89 91 79 59 94 100 100 100 100 100 45 92
100 100 40 5 0 0 0 0 91 100 100 100 5 0 0 5 4 0 0 0 0 0 11 0 0 2 24 24 28 33 100 35 29 97 100 100 100 100 100 100 100 82 100 81 100 100 76 100 100
100 53 28 5 0 0 0 0 57 97 100 100 49 0 0 0 0 0 0 0 0 0 18 15 2 29 27 29 81 98 100 99 46 8 100 100 99 77 91 100 49 57 67 78 99 100 100 100 100
100 100 9 2 0 0 0 0 40 87 89 65 98 4 0 0 0 0 0 0 0 6 27 26 11 48 37 24 56 97 100 100 87 14 51 83 76 86 100 97 62 81 84 70 100 100 100 99 76
100 90 43 10 3 0 0 0 0 8 43 6 5 57 4 3 2 4 5 5 5 5 8 29 24 44 75 42 50 100 100 100 100 100 100 100 100 100 92 54 90 100 97 100 100 100 92 60 67
100 100 100 87 27 12 0 0 0 0 14 4 0 9 98 36 6 5 5 5 5 5 11 53 87 100 100 95 100 100 100 100 100 100 100 100 100 90 28 79 99 100 100 100 100 76 29 39 60
100 65 40 14 1 4 0 0 0 5 5 10 0 3 5 5 5 5 4 0 5 5 5 6 5 8 16 68 87 92 100 100 100 100 100 100 87 75 74 100 100 82 39 58 74 90 94 32 23
24 5 4 11 2 5 4 0 0 5 5 5 5 5 5 5 5 5 5 5 5 5 5 5 5 5 5 5 29 54 74 100 100 94 54 85 38 46 47 55 52 32 56 98 53 37 60 7 14
5 4 5 5 5 79 2 0 5 0 3 5 0 5 2 5 20 5 5 5 5 4 5 5 5 8 6 5 5 31 35 68 96 20 5 5 5 5 13 6 5 70 92 98 84 63 31 74 92

GFSSGP_prec_cloud_048.txt.gz
Cloud_Cover
0 0 0 0 0 0 0 0 0 0 0 0 0 0 0 0 0 0 0 0 0 0 0 8 8 26 100 100 100 100 100 100 100 100 100 100 100 100 100 98 100 100 90 95 95 26 14 8 52
0 0 0 0 0 0 0 0 0 0 0 0 0 0 0 0 0 0 0 14 0 3 0 10 8 87 100 100 100 100 100 100 100 100 100 100 100 100 100 92 100 22 29 99 98 73 90 93 69
0 0 0 0 0 0 0 0 0 0 0 0 0 0 0 0 0 0 0 40 12 17 1 0 0 10 59 54 86 29 23 13 9 26 100 100 50 94 84 69 98 96 5 5 88 98 68 72 22
0 0 0 0 0 0 0 0 0 0 0 0 0 0 0 0 0 0 12 20 22 31 1 0 0 0 0 0 0 0 3 0 0 0 69 53 8 5 5 7 99 93 100 46 85 14 100 43 91
0 0 0 0 0 0 0 0 0 0 0 0 0 0 0 0 0 0 10 12 30 42 10 0 0 0 0 0 0 0 0 0 0 0 92 97 0 45 5 5 8 19 67 78 100 68 96 100 100
0 0 0 0 0 0 0 0 0 0 0 0 0 0 0 0 0 0 24 13 12 23 10 3 9 0 0 0 0 0 0 0 0 0 2 26 0 0 0 2 0 0 25 99 92 35 86 93 100
0 0 0 0 0 0 0 0 0 0 0 0 0 0 0 0 0 1 43 8 18 30 18 14 3 0 3 0 0 0 0 0 0 0 0 0 0 0 0 0 0 0 67 90 100 100 98 26 65
0 0 0 0 0 0 0 0 0 0 0 0 0 0 0 0 0 0 25 10 20 52 49 42 98 95 81 100 100 43 0 0 0 0 0 0 0 0 0 0 0 0 0 70 100 100 100 100 100
0 0 0 0 0 0 0 0 0 0 0 0 0 0 0 0 0 9 31 32 33 55 60 64 88 73 60 21 100 98 6 0 0 0 2 8 0 0 0 6 19 0 0 0 0 0 0 0 0
0 0 0 0 0 0 0 0 0 0 0 0 0 0 0 0 0 0 17 29 40 36 54 59 98 100 100 96 100 61 7 0 0 0 9 17 30 25 6 100 100 100 9 0 0 0 0 0 0
0 0 0 0 0 0 0 0 0 0 0 0 0 0 0 0 0 0 0 0 4 0 0 1 1 61 100 100 100 98 97 85 16 32 89 100 100 100 97 100 100 100 100 20 6 0 0 0 0
5 0 3 5 5 0 0 0 0 0 0 0 0 0 0 0 0 0 0 0 0 0 0 0 0 0 13 32 9 97 100 100 79 27 57 100 43 88 100 98 100 100 100 91 35 24 33 0 0
3 0 3 5 5 3 0 0 0 0 0 0 0 0 0 0 0 0 0 0 0 0 0 0 0 0 0 0 23 30 87 100 100 100 90 100 51 86 100 89 100 100 100 100 66 76 96 70 27
0 0 3 5 2 5 3 0 0 0 0 0 0 0 0 0 0 0 0 0 0 0 0 0 0 0 0 0 43 96 28 100 100 100 89 100 76 89 100 100 100 100 100 100 100 100 100 100 100
0 0 0 0 5 26 5 0 0 0 0 0 0 0 0 0 0 0 0 0 0 0 0 0 0 16 45 36 30 48 99 100 100 97 100 100 100 98 100 100 100 100 100 100 100 100 100 100 100
1 0 0 0 5 0 0 0 0 0 0 0 0 0 0 0 0 0 0 0 0 0 0 0 0 76 80 64 50 96 95 100 94 100 100 100 100 100 100 100 100 100 100 100 100 100 100 86 74
2 5 2 3 0 0 0 0 0 0 0 0 0 0 0 0 0 0 0 0 0 0 0 2 2 80 99 67 87 99 95 97 100 100 100 100 100 100 100 100 100 100 100 100 100 100 93 10 1
5 5 5 5 0 0 1 4 0 0 0 0 0 0 0 0 0 0 0 0 0 0 0 0 15 61 96 42 100 100 80 100 100 100 100 100 100 100 100 100 100 100 100 100 100 82 37 0 5
6 5 7 5 0 0 0 16 5 0 0 0 0 5 0 0 0 0 0 0 0 0 16 12 43 23 92 100 100 100 94 100 100 100 100 100 100 100 100 100 100 100 100 100 40 2 1 5 5
9 37 98 5 0 0 0 1 5 5 5 4 1 0 4 2 0 0 0 0 0 0 7 18 39 56 99 100 100 65 41 96 67 100 100 100 98 100 100 100 97 80 27 5 5 5 5 13 74
20 27 87 65 23 0 0 0 2 71 12 5 5 0 0 0 0 0 0 0 0 0 8 18 33 50 100 100 99 12 25 53 55 100 100 100 89 100 100 87 8 5 6 5 5 5 5 5 5
46 76 23 12 5 5 0 0 3 97 100 88 99 5 0 0 0 0 0 0 0 0 0 3 21 22 92 100 100 29 5 6 5 27 100 100 100 100 46 7 6 66 43 5 5 5 5 5 5
55 100 90 26 5 3 0 0 5 100 100 100 100 61 0 0 0 0 0 0 0 0 1 14 25 25 30 100 100 60 26 7 2 31 98 100 100 100 32 5 11 18 41 60 86 87 8 24 6
100 100 66 5 5 0 0 0 17 43 84 100 100 9 0 0 0 0 0 0 0 0 13 43 38 38 30 46 62 90 100 63 87 31 100 100 100 93 26 17 62 91 95 100 98 80 19 66 98
100 100 100 53 3 0 0 0 0 100 1 47 5 0 0 0 0 0 0 0 0 13 18 61 60 54 26 51 47 66 93 49 64 100 100 100 98 92 96 100 100 100 100 100 100 33 57 78 100
100 100 100 27 5 1 0 0 0 1 99 0 0 3 0 0 0 0 0 0 0 0 9 57 90 50 19 50 66 57 57 60 100 100 100 99 100 100 100 100 100 100 100 100 97 80 100 96 100
100 100 100 100 40 4 0 0 0 4 22 9 2 59 16 0 0 0 0 0 0 0 5 31 62 34 7 38 58 68 12 39 100 100 100 100 100 100 42 100 98 96 87 100 83 53 90 97 15
100 100 100 100 100 67 4 0 0 5 3 0 0 2 7 0 0 0 0 0 0 0 1 6 23 18 5 34 41 58 6 33 100 100 100 100 100 100 10 60 81 97 84 99 78 97 66 7 8
100 100 100 94 24 5 5 5 0 4 2 0 2 3 0 0 0 0 0 0 0 0 0 5 15 3 5 14 37 52 37 76 100 100 100 100 100 100 98 86 96 100 100 100 83 75 78 89 96
74 37 10 5 19 44 7 0 5 0 0 5 5 1 0 0 0 0 0 0 0 0 2 0 3 0 0 3 10 41 55 96 100 100 100 100 100 100 100 100 100 100 88 93 77 100 100 100 98